FENGYUN 1C DEB

Satellite information

Favourite Embed

Satellite Type and Status

DEBRISIN ORBIT

Key statistics

Satellite FENGYUN 1C DEB at a glance.

Uptime

9554

Days in orbit

Revolutions

≈ 14.1

Per day

Orbit

SSO

Sun Synchronous Orbit

Inclination

98.4

Latest

Satellite identification and parameters

Extended collection of information and parameters for FENGYUN 1C DEB.

Object identification

Identified? True

Debris? True

Object name: FENGYUN 1C DEB

International designator: 1999-025AAK

Object number (NORAD): 30322

Object ID (CCSDS): 30322

Country: PEOPLES REPUBLIC OF CHINA (PRC)

Current information (Y/N): Y

RCS size: SMALL

Orbital parameters

Period: 102.467 minutes

Inclination: 98.4148 deg

SMA: 7253.535 km

Apoapsis: 968.544 km

Periapsis: 782.255 km

RAAN: 55.7761 deg

Eccentricy: 0.0128413

Argument of periapsis: 348.3427 deg

Mean anomaly: 11.4776 deg

Mean motion: 14.05329741 rev/day

Mean motion (dot): 0.00001258 rev/day2

B* drag term: 0.00074428 1/REarth

Two-line elements (TLE)

Creation date: July 5, 2025, 10:56 p.m.

Reference frame: TEME

Reference center: EARTH

Epoch: July 5, 2025, 2:40 p.m. UTC

TLE line 0: 0 FENGYUN 1C DEB

TLE line 1: 1 30322U 99025AAK 25186.61150376 .00001258 00000-0 74428-3 0 9990

TLE line 2: 2 30322 98.4148 55.7761 0128413 348.3427 11.4776 14.05329741940899

Live tracking on map

Real-time ground track for satellite FENGYUN 1C DEB.

In-orbit conjunctions

A list of the most updated potential collisions computed for object FENGYUN 1C DEB.

Target Orbit TCA Probability of collision Miss distance Type
FENGYUN 1C DEB SSO 2024-11-10 14:51:38 0.0003637798 284.0 (m) DEBRIS
COSMOS 1266 LEO 2024-11-06 10:25:28 0.000115531 244.0 (m) PAYLOAD

Associated space launch

Chinese polar orbiting meteorological satellite

FENGYUN 1C DEB was lifted into orbit during the mission ‘Long March 4B | Feng Yun 1C’, on board a Long March 4B space rocket.

The launch took place on May 10, 1999, 1:33 a.m. from Launch Complex 7.

For more information about the launch, click the button.

Launch to space Long March 4B | Feng Yun 1C
Long March 4B | Feng Yun 1C

Agency: N/A

Status: Launch Successful

Launch date: May 10, 1999, 1:33 a.m. UTC

Rocket: Long March 4B

Launch pad: Launch Complex 7

Location: Taiyuan Satellite Launch Center, People's Republic of China

...

Latest news about this satellite

There are no fresh news available about this satellite. Check back as we update our databases every day.


Newsletter sign-up

Weekly statistics, charts and insights to help you stay on top of the space industry.